Dewpoint
10 11 11 12 12 12 12 13 14 14 13 13 13 12 12 11 11 8 5 7 5 5 7 7 7 8 7 8 8 8 8 8 8 8 8 7 7 7 7 8 8 6 5
11 12 12 12 12 12 12 13 13 13 13 13 13 12 12 12 12 11 8 8 6 2 4 5 4 5 8 8 8 9 9 8 7 8 8 8 8 8 7 7 7 7 7
9 11 12 12 13 12 13 13 13 13 13 13 14 13 13 12 12 12 10 10 9 7 4 2 2 2 6 7 9 7 9 8 9 9 9 8 8 8 7 7 7 7 7
4 8 10 10 12 13 13 13 13 12 12 13 13 12 12 11 11 12 11 11 10 10 7 4 2 2 3 6 8 7 7 7 8 9 9 8 7 8 8 7 7 6 6
0 3 6 7 9 12 13 13 13 12 13 13 13 13 13 12 12 12 12 11 10 10 11 9 5 4 3 4 7 7 7 7 7 7 8 8 7 7 7 8 8 7 6
-2 0 3 4 5 10 11 13 13 13 13 13 12 13 11 11 12 12 11 11 10 10 10 11 10 7 5 4 5 5 6 6 7 7 7 7 7 6 6 7 8 8 7
-4 -2 -0 2 3 7 8 11 12 12 12 12 12 12 10 11 10 11 12 12 10 9 10 11 11 11 9 7 6 7 6 7 8 8 7 7 7 7 7 8 8 8 8
-7 -5 -4 -2 0 3 4 8 10 12 12 12 12 12 11 10 9 8 10 9 10 9 10 11 11 11 11 10 9 8 7 7 8 9 9 8 8 8 8 8 8 8 7
-9 -7 -6 -4 -3 0 2 5 7 10 11 11 12 12 12 12 12 11 11 9 9 9 9 10 10 10 10 10 10 10 10 9 9 10 10 10 10 10 9 8 8 7 7
-10 -9 -8 -6 -5 -3 -2 3 3 6 8 9 9 11 11 12 11 12 11 11 10 10 10 10 10 10 10 9 9 10 10 10 10 10 9 8 8 8 8 9 9 8 8
-10 -10 -9 -8 -6 -5 -2 -0 1 2 5 6 7 10 11 11 11 11 11 11 11 10 10 10 11 11 10 10 10 9 9 9 9 9 9 7 7 5 6 9 8 8 8
-11 -11 -10 -8 -7 -6 -5 -2 -1 -0 1 3 8 8 9 10 11 11 11 11 11 11 11 11 11 11 11 9 8 8 8 9 8 8 9 10 7 6 6 8 8 7 6
-11 -11 -11 -10 -9 -8 -6 -5 -5 -2 -0 0 3 6 7 9 10 10 10 10 9 9 9 10 10 10 10 10 10 10 9 9 9 8 7 8 8 8 7 7 7 8 7
-11 -11 -11 -11 -10 -10 -8 -6 -6 -5 -4 -1 0 3 4 6 7 8 9 9 9 9 9 8 8 7 7 8 9 8 8 7 7 7 7 8 8 7 7 7 7 8 7
-11 -12 -12 -12 -11 -10 -9 -7 -6 -6 -5 -3 -2 0 0 2 3 5 6 7 6 6 5 5 4 5 7 8 8 8 7 8 5 6 6 6 6 6 7 7 7 7 6
-12 -12 -12 -12 -12 -11 -11 -10 -7 -7 -6 -5 -3 -2 -1 -0 2 3 4 4 4 4 4 3 2 3 5 7 7 7 7 7 7 5 5 5 4 4 5 6 7 6 5
-13 -13 -13 -13 -13 -12 -11 -12 -9 -7 -7 -7 -5 -4 -2 -1 1 2 3 3 3 3 4 4 4 4 4 4 5 6 6 6 7 6 5 4 5 6 6 5 5 5 4
-14 -14 -13 -13 -13 -13 -12 -12 -12 -9 -8 -7 -6 -5 -4 -3 -1 -0 1 2 2 3 3 3 4 4 5 5 5 5 5 6 6 6 5 4 5 7 7 6 6 5 5
-14 -14 -14 -14 -15 -13 -12 -13 -12 -10 -8 -9 -7 -7 -6 -5 -4 -2 -1 1 1 2 2 3 3 3 3 3 4 5 5 5 5 6 6 6 5 6 6 8 7 7 6
-17 -16 -15 -14 -14 -19 -17 -15 -14 -12 -11 -10 -9 -7 -8 -5 -5 -4 -3 -1 -0 0 1 2 2 2 2 3 3 3 4 4 4 4 4 5 5 5 6 6 7 7 6
-17 -16 -17 -17 -17 -18 -22 -20 -18 -19 -16 -13 -11 -10 -9 -8 -7 -6 -5 -3 -2 -1 -1 0 1 1 1 1 2 3 3 4 4 4 5 5 6 6 6 6 6 6 6
-17 -17 -17 -17 -18 -20 -22 -23 -24 -23 -22 -21 -18 -16 -14 -12 -13 -9 -10 -7 -4 -4 -5 -3 -1 -1 -0 -0 1 1 2 3 4 4 4 5 5 4 5 5 5 4 5
-17 -17 -17 -18 -17 -19 -20 -22 -24 -25 -25 -24 -22 -21 -18 -15 -16 -16 -15 -14 -10 -6 -5 -5 -5 -3 -1 -1 -0 0 0 1 1 2 3 4 4 5 5 5 5 5 5
-18 -18 -18 -18 -19 -19 -20 -21 -21 -22 -25 -25 -23 -22 -22 -20 -17 -16 -16 -15 -14 -13 -10 -8 -7 -6 -5 -3 -2 -1 -0 0 0 1 2 1 2 2 3 3 3 4 4
-17 -17 -17 -17 -18 -18 -18 -19 -20 -21 -22 -22 -22 -22 -21 -23 -21 -17 -16 -14 -14 -14 -14 -13 -12 -11 -10 -7 -6 -4 -2 -1 -0 0 0 0 0 1 1 2 2 2 1
-16 -16 -16 -16 -16 -17 -17 -18 -19 -19 -20 -22 -22 -22 -19 -22 -22 -23 -19 -14 -12 -12 -14 -14 -13 -12 -12 -11 -11 -10 -9 -7 -5 -3 -1 -0 -0 -0 0 1 1 1 1
Wind_Speed
29 34 35 37 43 45 42 47 47 46 46 46 42 36 35 33 30 28 29 28 25 29 26 24 29 29 25 24 19 19 17 17 16 17 15 13 11 10 8 7 7 9 11
26 30 34 37 41 45 46 48 48 47 48 47 44 40 37 33 31 28 27 25 24 26 27 23 25 26 26 24 22 21 19 15 15 15 13 9 9 7 7 8 6 6 8
18 23 29 32 37 39 46 51 49 49 45 46 45 41 35 31 30 29 28 27 25 24 24 24 23 23 25 24 21 22 21 19 17 11 7 6 4 8 5 5 5 5 7
10 17 23 29 31 42 41 41 52 49 47 46 45 45 43 40 37 35 32 29 26 24 23 22 24 24 24 25 22 21 18 15 16 15 11 9 9 4 4 2 2 2 4
8 11 14 15 23 33 41 43 46 45 51 49 43 45 44 41 37 33 32 31 29 26 25 23 23 23 22 24 21 19 17 13 12 12 13 11 10 7 5 2 2 1 4
9 8 9 11 13 30 34 44 43 46 44 48 46 47 44 42 39 35 33 34 33 29 29 26 25 24 24 23 21 19 16 13 11 11 10 9 7 5 4 5 3 5 5
11 10 7 10 9 17 23 36 42 44 46 46 48 49 45 43 41 40 38 38 38 34 32 30 28 26 25 23 23 18 18 17 14 12 13 11 10 6 6 6 6 7 6
16 15 9 8 9 13 15 26 33 42 44 44 47 50 49 44 40 39 38 39 38 36 32 31 30 27 25 25 24 22 21 21 19 16 15 13 13 13 13 10 9 9 8
17 15 12 9 9 10 12 20 23 34 35 40 45 51 52 41 38 33 34 35 36 35 35 33 29 25 24 25 24 21 21 20 21 19 17 17 16 16 16 14 12 11 10
21 18 16 13 9 10 6 17 16 23 30 29 28 46 37 33 35 30 29 33 36 34 32 28 27 26 25 24 23 23 22 22 23 23 21 20 19 19 18 22 17 15 16
23 21 20 16 13 9 11 12 14 15 20 22 25 37 40 35 35 36 33 31 31 31 30 27 25 24 25 23 22 22 21 21 20 20 20 20 19 19 19 20 21 19 19
23 23 21 18 19 12 13 11 14 11 14 18 26 29 37 38 38 39 38 37 35 33 30 30 28 27 25 24 24 25 23 23 23 22 21 21 19 19 19 21 23 20 19
24 23 22 21 20 19 14 14 6 10 12 9 22 28 30 35 36 36 34 32 31 31 30 31 31 30 29 28 27 26 25 25 25 25 23 22 21 21 20 21 22 21 20
23 23 23 23 22 20 15 16 10 10 6 14 15 22 24 32 34 35 34 32 30 29 30 29 29 28 27 24 21 21 23 28 29 27 27 26 24 22 21 21 22 22 22
22 22 23 22 22 19 22 15 14 9 12 9 10 17 17 18 23 29 29 29 27 26 26 28 28 27 26 25 24 21 20 21 23 23 23 23 23 23 22 23 22 22 22
17 19 18 19 21 22 20 18 12 10 13 8 9 11 13 17 16 22 23 25 25 22 23 25 25 24 25 25 26 25 24 23 23 21 22 22 21 22 24 25 26 25 21
15 15 16 17 18 19 17 18 15 15 10 9 9 6 8 9 14 15 17 20 19 21 18 20 19 19 21 24 26 26 26 26 25 24 23 22 22 21 21 21 21 23 22
14 13 14 15 16 14 16 17 14 9 8 10 9 8 4 9 10 14 15 15 15 18 15 15 16 16 18 20 21 24 27 28 29 24 24 23 23 23 23 23 25 25 24
12 14 12 10 11 14 13 12 13 14 13 9 8 8 7 4 5 8 11 17 12 15 13 13 12 14 14 19 23 25 27 26 26 22 20 19 20 22 24 22 23 24 25
8 10 10 10 9 11 9 9 11 11 11 12 11 10 8 4 2 2 4 8 12 11 10 11 13 14 13 17 20 20 19 20 21 22 23 23 22 24 19 24 23 25 25
9 10 7 8 10 9 8 8 9 10 11 10 10 8 9 9 6 4 4 4 6 8 10 11 11 11 12 15 18 20 19 19 22 22 21 22 23 25 24 23 24 26 28
8 9 9 9 9 9 8 7 8 9 9 7 7 7 7 6 6 3 5 4 4 7 4 7 10 12 13 14 17 19 19 19 18 20 23 24 25 26 28 28 28 29 31
6 8 8 8 8 9 9 9 9 8 8 8 8 7 6 6 6 5 3 2 3 6 8 9 11 13 15 18 21 21 22 19 16 20 23 25 25 28 28 28 28 28 29
6 6 6 7 8 9 9 10 10 9 8 7 7 7 7 7 5 4 4 4 3 5 8 10 12 15 16 17 19 20 21 24 22 23 21 20 20 23 25 25 26 27 28
7 7 9 9 10 10 11 10 11 10 9 7 6 6 7 7 6 5 4 5 5 6 7 9 12 13 15 16 18 21 22 24 25 26 24 22 24 25 26 25 24 22 22
9 9 10 12 12 12 13 13 12 12 11 9 7 6 7 6 6 6 3 2 3 6 7 7 8 11 13 14 17 18 19 22 23 27 27 26 25 24 25 23 22 20 21
Wind_Direction
190 194 198 203 199 197 192 190 187 186 186 186 183 178 178 180 179 178 176 177 175 173 173 176 177 179 175 165 166 150 149 147 150 133 130 122 127 133 128 102 61 63 62
180 188 201 200 203 200 195 192 191 191 191 190 189 186 180 182 182 179 179 181 179 177 176 179 175 175 170 171 167 163 161 160 148 125 105 108 107 104 111 115 106 67 52
162 175 186 199 196 194 198 198 200 198 194 192 189 185 178 178 181 186 182 183 182 181 180 179 176 171 173 171 174 172 168 163 138 155 134 150 125 119 101 99 81 84 57
131 160 176 182 175 189 186 199 204 204 200 193 195 193 188 180 183 190 188 185 184 182 181 180 175 173 176 175 178 175 170 167 164 171 167 144 139 163 141 109 53 37 27
76 120 154 173 169 182 179 185 198 204 198 202 200 193 195 190 187 185 190 186 190 192 186 186 182 181 180 181 182 180 180 182 186 183 177 159 155 161 140 168 194 311 345
65 110 138 158 166 179 170 183 189 196 203 209 202 199 199 193 189 186 187 192 195 195 195 191 188 185 183 188 186 190 192 205 200 191 192 199 198 192 200 215 228 292 301
53 74 105 138 148 174 167 175 185 199 199 200 200 206 200 197 197 193 191 192 199 198 198 197 196 194 192 191 194 194 201 209 212 216 211 204 202 205 229 226 229 262 277
43 53 53 87 118 152 149 167 175 187 188 191 207 211 201 198 201 200 198 201 202 201 201 202 205 204 197 192 197 205 212 214 222 220 222 227 226 233 232 234 244 265 272
42 43 43 51 84 123 141 149 168 178 177 182 193 195 197 188 193 198 204 206 206 204 206 210 212 208 205 209 213 213 214 219 225 230 232 235 245 247 245 247 244 261 262
36 38 39 49 55 98 132 146 153 169 171 165 163 181 181 188 191 192 198 207 208 207 208 210 208 212 210 212 214 220 223 227 228 232 235 239 244 248 250 248 249 254 266
34 36 37 42 41 53 96 135 147 156 171 170 152 159 173 171 183 184 174 175 190 191 193 192 196 199 200 207 214 219 223 228 230 234 244 247 244 248 253 249 243 254 262
35 35 36 39 43 40 55 108 135 145 157 146 171 161 163 168 171 178 180 176 176 182 185 189 194 196 201 209 217 221 225 231 238 241 241 248 253 248 250 249 250 257 263
33 33 34 39 36 47 44 58 86 114 134 147 159 165 160 167 175 183 184 187 188 190 197 199 202 205 208 213 216 222 228 231 238 243 240 244 254 258 258 257 259 259 264
32 29 28 29 38 37 46 54 47 66 141 129 144 158 162 166 171 175 180 185 195 201 202 207 212 216 215 212 212 221 227 228 232 236 241 241 246 254 259 259 259 260 265
27 25 24 21 31 31 42 41 48 29 62 103 132 147 155 155 163 169 175 184 194 203 211 212 214 219 217 215 212 215 227 241 237 234 236 241 244 245 247 251 255 256 263
18 18 21 19 19 25 34 30 47 40 42 53 102 121 142 155 155 164 177 186 192 199 208 214 216 215 214 212 215 217 222 234 235 239 234 238 244 247 246 247 250 255 257
8 11 10 16 18 15 23 25 31 46 35 26 75 98 114 138 143 165 189 187 196 199 203 211 210 210 216 221 218 219 226 231 241 235 235 238 241 245 246 246 243 244 245
359 5 6 15 14 3 29 22 21 36 37 31 43 64 86 100 138 159 164 186 186 189 192 194 202 208 212 221 222 222 227 233 239 245 242 244 240 240 248 248 243 247 249
352 354 5 17 359 7 25 6 18 18 33 21 28 38 52 101 116 149 159 171 190 182 187 201 202 216 223 232 234 231 232 235 238 239 238 247 250 249 248 244 244 248 249
341 348 353 0 2 10 18 16 11 14 22 15 22 28 357 48 50 99 182 180 182 177 195 209 210 217 222 232 232 231 233 237 241 244 242 238 240 250 250 247 246 251 249
341 341 357 351 351 357 13 13 3 9 17 19 14 5 2 13 15 357 288 215 205 182 196 204 209 210 215 238 239 238 236 234 232 232 232 233 236 237 242 245 249 256 258
345 342 346 353 354 352 6 14 359 2 5 7 17 15 13 7 351 332 338 313 227 200 207 212 199 215 220 238 245 244 242 237 229 228 233 233 237 243 246 251 253 256 260
341 334 337 347 348 352 3 8 3 358 0 2 4 358 354 349 345 352 341 295 245 231 220 227 224 229 227 239 242 244 244 248 243 238 238 241 243 243 246 249 251 255 258
340 348 347 348 354 353 358 357 355 357 2 5 4 357 350 341 334 328 319 305 273 253 244 238 242 236 236 239 242 243 246 250 254 256 251 254 259 261 258 258 262 263 263
328 336 340 343 349 350 349 350 350 353 357 0 358 353 344 346 336 321 313 328 309 288 276 264 256 252 247 249 255 250 245 249 253 258 260 257 264 266 270 271 266 263 267
302 310 319 322 329 332 335 335 336 338 341 344 343 345 336 338 329 326 308 273 342 328 302 284 274 267 268 270 272 271 267 264 262 260 259 259 260 261 265 267 264 265 268
Height
1444 1451 1459 1465 1471 1478 1485 1489 1496 1502 1507 1513 1521 1527 1531 1537 1543 1548 1552 1556 1560 1564 1568 1572 1577 1581 1585 1589 1592 1595 1598 1601 1604 1605 1608 1610 1612 1613 1615 1616 1616 1616 1616
1442 1448 1454 1461 1468 1473 1480 1485 1491 1496 1504 1510 1518 1525 1529 1535 1541 1546 1551 1555 1559 1563 1567 1570 1575 1580 1584 1588 1592 1595 1598 1601 1603 1606 1608 1610 1614 1614 1615 1616 1617 1617 1618
1442 1446 1450 1458 1463 1470 1475 1480 1487 1493 1500 1507 1514 1522 1529 1535 1540 1544 1549 1553 1558 1562 1566 1570 1574 1579 1583 1587 1591 1594 1597 1599 1603 1605 1608 1610 1612 1614 1616 1616 1618 1618 1618
1443 1443 1447 1454 1457 1463 1469 1478 1483 1490 1496 1502 1508 1515 1521 1526 1534 1539 1545 1551 1556 1561 1565 1569 1573 1577 1582 1586 1589 1593 1596 1599 1601 1604 1606 1608 1610 1613 1615 1616 1617 1617 1618
1446 1445 1448 1452 1454 1458 1465 1472 1479 1486 1492 1498 1506 1511 1517 1525 1531 1537 1543 1549 1554 1559 1563 1567 1571 1576 1580 1585 1588 1592 1595 1598 1601 1603 1606 1608 1610 1612 1613 1615 1616 1617 1617
1450 1448 1449 1451 1454 1456 1457 1468 1474 1481 1488 1494 1502 1505 1512 1518 1525 1532 1539 1545 1549 1555 1560 1565 1569 1573 1578 1582 1587 1590 1594 1597 1599 1602 1604 1607 1609 1611 1612 1614 1615 1616 1616
1454 1451 1453 1453 1455 1455 1458 1462 1470 1478 1483 1489 1496 1500 1506 1512 1519 1526 1533 1538 1544 1550 1556 1561 1565 1570 1574 1579 1584 1588 1592 1594 1597 1600 1602 1605 1608 1610 1611 1613 1614 1614 1615
1458 1455 1457 1456 1454 1458 1456 1460 1466 1472 1477 1483 1490 1493 1496 1501 1510 1520 1527 1534 1540 1546 1552 1557 1561 1566 1571 1575 1580 1584 1588 1591 1594 1598 1600 1603 1605 1607 1608 1610 1612 1613 1614
1465 1465 1461 1457 1460 1457 1457 1455 1464 1469 1473 1477 1484 1483 1486 1495 1499 1513 1523 1530 1536 1542 1548 1554 1558 1563 1568 1572 1576 1580 1584 1587 1591 1594 1597 1599 1602 1604 1605 1607 1609 1610 1611
1468 1467 1468 1464 1465 1461 1462 1455 1462 1466 1469 1473 1479 1475 1483 1491 1498 1507 1517 1524 1531 1538 1544 1550 1554 1559 1564 1568 1572 1576 1580 1583 1586 1589 1592 1595 1597 1599 1601 1603 1605 1607 1608
1477 1474 1471 1468 1465 1465 1458 1461 1465 1468 1469 1475 1469 1475 1478 1491 1494 1501 1511 1519 1526 1533 1539 1545 1550 1555 1560 1563 1567 1571 1575 1578 1582 1585 1587 1590 1593 1594 1596 1598 1600 1602 1604
1483 1479 1476 1474 1467 1470 1465 1465 1465 1470 1474 1468 1470 1467 1482 1486 1489 1499 1508 1515 1522 1529 1534 1540 1546 1551 1556 1559 1563 1567 1571 1574 1576 1579 1582 1584 1587 1589 1591 1593 1596 1598 1599
1488 1485 1483 1480 1480 1473 1475 1468 1478 1464 1467 1471 1472 1468 1473 1478 1488 1498 1504 1511 1519 1524 1530 1536 1541 1547 1551 1555 1558 1562 1565 1568 1571 1574 1576 1579 1582 1584 1586 1588 1590 1593 1595
1493 1490 1487 1483 1479 1481 1481 1473 1480 1473 1484 1467 1472 1471 1475 1481 1488 1494 1500 1506 1514 1520 1525 1529 1536 1542 1546 1549 1553 1556 1559 1562 1564 1568 1571 1574 1576 1579 1581 1584 1586 1587 1589
1497 1495 1490 1489 1482 1485 1474 1477 1475 1481 1470 1475 1476 1472 1483 1475 1485 1488 1492 1501 1509 1516 1521 1524 1529 1536 1540 1543 1546 1549 1553 1556 1558 1562 1565 1568 1571 1574 1576 1579 1581 1583 1584
1502 1500 1498 1494 1491 1484 1483 1483 1482 1481 1472 1481 1476 1477 1484 1487 1479 1482 1491 1497 1504 1512 1517 1521 1524 1529 1532 1536 1540 1543 1546 1549 1553 1557 1560 1563 1566 1568 1571 1573 1575 1578 1579
1505 1503 1500 1497 1493 1489 1490 1488 1484 1471 1483 1484 1478 1478 1476 1482 1479 1483 1489 1493 1504 1507 1515 1517 1519 1522 1525 1529 1533 1537 1541 1544 1547 1551 1554 1557 1559 1562 1565 1567 1569 1571 1573
1507 1505 1502 1498 1496 1498 1487 1487 1489 1490 1487 1482 1479 1478 1483 1473 1481 1488 1488 1494 1502 1501 1509 1512 1515 1517 1520 1525 1528 1531 1534 1538 1541 1544 1547 1550 1553 1556 1558 1561 1563 1565 1567
1508 1506 1504 1501 1499 1494 1491 1499 1490 1486 1479 1490 1487 1481 1484 1486 1485 1486 1488 1493 1497 1501 1503 1509 1511 1514 1517 1521 1523 1525 1528 1531 1535 1539 1542 1545 1548 1550 1552 1553 1555 1558 1560
1508 1507 1506 1503 1501 1498 1497 1495 1492 1491 1489 1488 1485 1478 1489 1482 1483 1486 1489 1491 1494 1495 1498 1506 1509 1513 1513 1514 1518 1521 1523 1527 1530 1533 1537 1539 1542 1545 1545 1548 1549 1551 1553
1506 1507 1506 1504 1502 1500 1497 1493 1491 1492 1490 1488 1488 1491 1488 1483 1482 1485 1491 1486 1487 1488 1498 1501 1505 1508 1510 1512 1515 1517 1518 1520 1523 1526 1529 1532 1534 1537 1539 1541 1543 1545 1547
1505 1505 1504 1503 1502 1500 1498 1495 1494 1494 1492 1493 1490 1489 1488 1486 1489 1488 1488 1488 1489 1492 1495 1497 1499 1506 1506 1510 1512 1513 1513 1515 1518 1520 1522 1525 1528 1531 1533 1535 1537 1539 1540
1505 1504 1504 1502 1501 1499 1497 1495 1495 1494 1491 1490 1489 1490 1490 1487 1488 1486 1488 1491 1490 1490 1492 1495 1496 1498 1502 1507 1507 1508 1509 1510 1513 1513 1516 1519 1521 1523 1525 1527 1529 1530 1531
1504 1505 1505 1503 1500 1498 1496 1494 1495 1494 1492 1490 1489 1489 1489 1488 1488 1487 1489 1491 1488 1489 1491 1492 1493 1497 1502 1503 1501 1503 1504 1506 1507 1507 1510 1512 1514 1516 1517 1519 1521 1522 1523
1502 1502 1501 1500 1497 1496 1496 1495 1493 1492 1491 1490 1489 1489 1489 1488 1488 1489 1489 1488 1488 1489 1490 1490 1493 1494 1496 1496 1495 1495 1497 1498 1500 1502 1503 1505 1509 1510 1511 1512 1513 1515 1515
1500 1500 1498 1497 1495 1494 1494 1492 1491 1490 1490 1489 1489 1489 1489 1488 1487 1488 1488 1487 1487 1487 1488 1489 1490 1490 1489 1489 1489 1489 1490 1492 1494 1494 1495 1498 1500 1501 1503 1504 1505 1507 1508